Location: Newark
(20.1200°S, 168.9600°E)
Time: 22:30:05
(UTC+00:00)

Hubble Space Telescope - Visible Passes

Search period start: 22 November 2019 00:00
Search period end: 02 December 2019 00:00
Orbit: 536 x 540 km, 28.5° (Epoch: 21 November)

Date Brightness Start Highest point End Pass type
(mag) Time Alt. Az. Time Alt. Az. Time Alt. Az.
22 Nov 0.8 16:38:51 34° W 16:40:32 72° SSW 16:44:42 10° ESE visible
23 Nov 1.1 16:28:43 39° WSW 16:29:59 57° SSW 16:34:06 10° ESE visible
24 Nov 1.5 16:18:34 39° SW 16:19:27 46° SSW 16:23:29 10° ESE visible
25 Nov 1.7 16:08:24 37° SSW 16:08:56 39° SSW 16:12:52 10° SE visible
26 Nov 2.0 15:58:14 33° SSW 15:58:26 34° SSW 16:02:15 10° SE visible
27 Nov 2.3 15:48:04 30° S 15:48:04 30° S 15:51:38 10° SE visible
27 Nov 2.7 17:26:10 10° SW 17:29:41 26° S 17:33:12 10° ESE visible
28 Nov 2.6 15:37:56 27° S 15:37:56 27° S 15:41:04 10° SE visible
28 Nov 2.7 17:15:38 10° SW 17:19:13 27° S 17:22:48 10° ESE visible
29 Nov 2.9 15:27:51 24° SSE 15:27:51 24° SSE 15:30:30 10° SE visible
29 Nov 2.6 17:05:03 10° SW 17:08:44 29° S 17:12:25 10° ESE visible
30 Nov 3.2 15:17:51 21° SSE 15:17:51 21° SSE 15:20:00 10° SE visible
30 Nov 2.4 16:54:27 10° SW 16:58:15 32° SSE 17:02:01 10° ESE visible
01 Dec 3.5 15:07:58 18° SE 15:07:58 18° SE 15:09:31 10° ESE visible
01 Dec 2.2 16:43:51 10° SW 16:47:44 37° SSE 16:51:38 10° E visible
